GW1998 Weather Reports


time (UTC)temp
F
wind
direction
speed
knots
gust
knots
rain 1hr
in
rain 24hr
in
rain mn
in
humidity
%
barometer
mb
20260506050820 62 23 4.3 9.6 0.00 0.00 0.00 74 1011.8
20260506044825 63 15 8.7 11.3 0.00 0.00 0.00 73 1011.7
20260506043825 63 24 7.0 12.2 0.00 0.00 0.00 73 1011.6
20260506042826 64 26 7.8 9.6 0.00 0.00 0.00 73 1011.5
20260506041826 64 27 7.8 11.3 0.00 0.00 0.00 72 1011.7
20260506040827 65 14 7.0 12.2 0.00 0.00 0.00 72 1011.7
20260506035924 66 9 6.1 7.8 0.00 0.00 0.00 71 1011.7
20260506034925 66 359 8.7 13.0 0.00 0.00 0.00 70 1011.4
20260506033927 66 16 7.8 13.9 0.00 0.00 0.00 70 1011.0
20260506032925 66 3 7.8 13.9 0.00 0.00 0.00 69 1010.9
20260506031927 67 8 8.7 13.0 0.00 0.00 0.00 69 1010.8
20260506030925 67 2 8.7 12.2 0.00 0.00 0.00 68 1010.4
20260506030024 67 8 6.1 8.7 0.00 0.00 0.00 68 1010.1
20260506025026 68 26 7.0 9.6 0.00 0.00 0.00 67 1010.0
20260506024026 68 17 6.1 8.7 0.00 0.00 0.00 67 1010.1
20260506023125 68 24 9.6 13.0 0.00 0.00 0.00 67 1009.7
20260506022125 69 1 7.0 11.3 0.00 0.00 0.00 66 1009.6
20260506021125 69 7 7.8 13.9 0.00 0.00 0.00 66 1009.5
20260506020125 70 3 7.8 12.2 0.00 0.00 0.00 66 1009.2
20260506020026 70 12 8.7 13.0 0.00 0.00 0.00 66 1009.2
20260506015025 71 9 7.8 10.4 0.00 0.00 0.00 66 1008.8
20260506014026 71 19 6.1 8.7 0.00 0.00 0.00 65 1008.6
20260506013027 72 8 6.1 10.4 0.00 0.00 0.00 64 1008.3
20260506012126 72 24 7.8 10.4 0.00 0.00 0.00 64 1008.1
20260506011139 73 13 6.1 7.8 0.00 0.00 0.00 63 1007.7
20260506005225 74 356 3.5 5.2 0.00 0.00 0.00 62 1007.7
20260506004238 74 348 4.3 7.0 0.00 0.00 0.00 62 1007.6
20260506003226 75 355 4.3 7.0 0.00 0.00 0.00 61 1007.3
20260506002325 75 20 5.2 7.8 0.00 0.00 0.00 59 1007.4
20260506001327 76 9 7.0 9.6 0.00 0.00 0.00 58 1007.2
20260506000425 76 360 7.8 12.2 0.00 0.00 0.00 56 1007.1
20260505235427 77 5 6.1 10.4 0.00 0.00 0.00 56 1007.1
20260505232624 79 338 7.0 13.0 0.00 0.00 0.00 56 1006.6
20260505231724 80 350 7.0 12.2 0.00 0.00 0.00 55 1006.6
20260505230726 81 5 9.6 13.9 0.00 0.00 0.00 55 1006.3
20260505225726 82 14 5.2 10.4 0.00 0.00 0.00 55 1006.3
20260505224728 84 360 7.0 10.4 0.00 0.00 0.00 50 1006.0
20260505223724 86 8 5.2 7.8 0.00 0.00 0.00 44 1005.9
20260505222727 86 348 5.2 9.6 0.00 0.00 0.00 42 1005.8
20260505220724 90 4 7.8 10.4 0.00 0.00 0.00 40 1005.7
20260505215726 92 5 4.3 8.7 0.00 0.00 0.00 39 1005.4
20260505214725 93 252 4.3 7.8 0.00 0.00 0.00 38 1005.5
20260505214625 93 290 2.6 5.2 0.00 0.00 0.00 38 1005.6
20260505213625 93 265 1.7 3.5 0.00 0.00 0.00 38 1005.6
20260505212626 93 236 2.6 4.3 0.00 0.00 0.00 37 1005.6
20260505211625 94 250 3.5 5.2 0.00 0.00 0.00 37 1005.8
20260505210625 93 224 3.5 4.3 0.00 0.00 0.00 38 1005.8
20260505205725 93 286 3.5 6.1 0.00 0.00 0.00 36 1006.1
20260505204726 92 235 3.5 7.0 0.00 0.00 0.00 39 1006.1
20260505203727 91 240 6.1 9.6 0.00 0.00 0.00 43 1006.3
20260505202724 91 200 3.5 5.2 0.00 0.00 0.00 44 1006.3
20260505202624 91 201 3.5 5.2 0.00 0.00 0.00 44 1006.2
20260505201625 90 227 7.0 12.2 0.00 0.00 0.00 45 1006.4
20260505200628 90 236 5.2 9.6 0.00 0.00 0.00 44 1006.5
20260505195626 89 233 2.6 4.3 0.00 0.00 0.00 46 1006.5
20260505194626 89 218 5.2 10.4 0.00 0.00 0.00 46 1006.5
20260505193725 88 234 8.7 13.0 0.00 0.00 0.00 49 1006.5
20260505192824 88 240 5.2 8.7 0.00 0.00 0.00 49 1006.6
20260505191825 87 226 7.8 10.4 0.00 0.00 0.00 50 1006.7
20260505190826 87 213 9.6 13.9 0.00 0.00 0.00 51 1006.6
20260505185824 86 199 8.7 13.0 0.00 0.00 0.00 52 1006.6
20260505184826 86 246 10.4 15.6 0.00 0.00 0.00 53 1006.4
20260505183825 86 225 9.6 13.9 0.00 0.00 0.00 53 1006.7
20260505182825 85 225 6.1 9.6 0.00 0.00 0.00 57 1006.7
20260505181826 85 221 5.2 8.7 0.00 0.00 0.00 58 1006.8
20260505180825 84 224 9.6 14.8 0.00 0.00 0.00 58 1006.9
20260505175826 83 219 9.6 15.6 0.00 0.00 0.00 60 1007.0
20260505173925 82 222 7.8 11.3 0.00 0.00 0.00 62 1007.0
20260505173024 82 225 10.4 16.5 0.00 0.00 0.00 64 1007.0
20260505172026 81 209 7.0 9.6 0.00 0.00 0.00 65 1007.1
20260505171124 81 223 8.7 13.0 0.00 0.00 0.00 65 1007.0
20260505170126 81 218 9.6 15.6 0.00 0.00 0.00 65 1007.0
20260505165224 81 217 6.1 10.4 0.00 0.00 0.00 66 1007.2
20260505163323 79 214 11.3 14.8 0.00 0.00 0.00 67 1007.1
20260505161325 78 218 11.3 17.4 0.00 0.00 0.00 69 1006.6
20260505160325 78 212 8.7 13.9 0.00 0.00 0.00 70 1006.5
20260505152525 76 231 9.6 15.6 0.00 0.00 0.00 73 1006.7
20260505151525 76 220 12.2 18.2 0.00 0.00 0.00 73 1006.8
20260505150543 75 214 10.4 15.6 0.00 0.00 0.00 75 1006.8
20260505140624 72 209 9.6 14.8 0.00 0.00 0.00 79 1006.8
20260505124727 70 196 8.7 13.9 0.00 0.00 0.00 82 1006.5
20260505123725 70 201 7.0 9.6 0.00 0.00 0.00 83 1006.5
20260505122725 70 204 7.8 9.6 0.00 0.00 0.00 82 1006.1
20260505121724 70 212 7.8 11.3 0.00 0.00 0.00 83 1006.3
20260505120725 70 216 9.6 13.9 0.00 0.00 0.00 83 1006.2
20260505115726 69 209 8.7 12.2 0.00 0.00 0.00 83 1005.9
20260505114824 69 210 7.0 10.4 0.00 0.00 0.00 83 1005.8
20260505113825 69 211 7.0 9.6 0.00 0.00 0.00 83 1006.1
20260505111825 69 206 9.6 13.9 0.00 0.00 0.00 83 1005.6
20260505095926 68 202 7.0 10.4 0.00 0.00 0.00 84 1005.5
20260505095024 68 211 7.0 13.0 0.00 0.00 0.00 84 1005.7
20260505094024 69 208 8.7 14.8 0.00 0.00 0.00 84 1005.8
20260505092125 69 209 8.7 13.9 0.00 0.00 0.00 83 1005.9
20260505091126 69 204 5.2 8.7 0.00 0.00 0.00 83 1006.1
20260505090126 69 193 7.8 11.3 0.00 0.00 0.00 83 1006.1
20260505083125 70 199 8.7 13.0 0.00 0.00 0.00 81 1006.2
20260505082126 70 208 8.7 14.8 0.00 0.00 0.00 81 1006.2
20260505080126 70 191 6.1 9.6 0.00 0.00 0.00 79 1006.2
20260505074125 71 189 9.6 13.0 0.00 0.00 0.00 77 1006.5
20260505073125 71 186 8.7 13.9 0.00 0.00 0.00 77 1006.7
20260505072124 71 200 7.8 12.2 0.00 0.00 0.00 76 1006.8
20260505071125 71 195 9.6 13.9 0.00 0.00 0.00 76 1007.1
20260505070224 71 200 7.8 13.0 0.00 0.00 0.00 75 1007.2
20260505064225 71 205 7.8 12.2 0.00 0.00 0.00 74 1007.5
20260505063224 72 185 8.7 11.3 0.00 0.00 0.00 74 1007.6
20260505062226 72 198 7.8 11.3 0.00 0.00 0.00 73 1007.7
20260505061226 72 200 7.0 10.4 0.00 0.00 0.00 73 1007.7
20260505060225 72 198 10.4 15.6 0.00 0.00 0.00 72 1007.7